Tracking 19644 objects as of 25-Apr-2019
HD Live streaming from Space Station
objects crossing your sky now

COSMOS 1348 DEB

Track COSMOS 1348 DEB now!


NORAD ID: 32772
Int'l Code: 1982-029F
Perigee: 8,969.0 km
Apogee: 32,662.6 km
Inclination: 72.7 °
Period: 743.5 minutes
Semi major axis: 27186 km
RCS: 0.0356 m2 (small)
Launch date: April 7, 1982
Source: Commonwealth of Independent States (former USSR) (CIS)
Launch site: PLESETSK MISSILE AND SPACE COMPLEX (PKMTR)

Note: This is SATELLITE DEBRIS
aabbcc
Your satellite tracking list
Your tracking list is empty




NASA's NSSDC Master Catalog

Two Line Element Set (TLE):
1 32772U 82029F   19114.93643391  .00000032  00000-0  00000+0 0  9990
2 32772  72.7063 301.4892 4357566  60.5734 356.7109  1.93671730 87931
Source of the keplerian elements: AFSPC